This is the latest recevied weather packets stored in our database for station/object K6CEG. If no packets are shown the sender has not sent any weather packets the latest 10 day(s).
| Time | Temp. | Humidity | Pressure | Rain* | Wind** | Luminosity | Snow |
|---|---|---|---|---|---|---|---|
| 1788366628 | 22.22° C | 53% | 1018.1 hPa | 0 mm | - | 439 W/m² | - |
| 1788366327 | 22.78° C | 51% | 1018.4 hPa | 0 mm | - | 400 W/m² | - |
| 1788366022 | 23.33° C | 50% | 1018.5 hPa | 0 mm | - | 330 W/m² | - |
| 1788365717 | 22.22° C | 52% | 1018.5 hPa | 0 mm | - | 318 W/m² | - |
| 1788365413 | 23.33° C | 51% | 1018.2 hPa | 0 mm | - | 61 W/m² | - |
| 1788365109 | 22.78° C | 52% | 1018.3 hPa | 0 mm | - | 53 W/m² | - |
| 1788364809 | 22.78° C | 53% | 1018.5 hPa | 0 mm | - | 55 W/m² | - |
| 1788364502 | 22.78° C | 52% | 1018.4 hPa | 0 mm | - | 58 W/m² | - |
| 1788364201 | 21.67° C | 52% | 1018.3 hPa | 0 mm | - | 81 W/m² | - |
| 1788363896 | 21.67° C | 52% | 1018.2 hPa | 0 mm | - | 214 W/m² | - |
| 1788363591 | 21.67° C | 53% | 1018.3 hPa | 0 mm | - | 202 W/m² | - |
| 1788363289 | 21.67° C | 53% | 1018.4 hPa | 0 mm | - | 201 W/m² | - |
| 1788362985 | 21.11° C | 55% | 1018.3 hPa | 0 mm | - | 193 W/m² | - |
| 1788362681 | 21.11° C | 56% | 1018.2 hPa | 0 mm | - | 170 W/m² | - |
| 1788362377 | 21.11° C | 57% | 1018.3 hPa | 0 mm | - | 165 W/m² | - |
| 1788362073 | 21.11° C | 56% | 1018.2 hPa | 0 mm | - | 147 W/m² | - |
| 1788361772 | 20.56° C | 61% | 1018.3 hPa | 0 mm | - | 124 W/m² | - |
| 1788361468 | 20° C | 63% | 1018.4 hPa | 0 mm | - | 122 W/m² | - |
| 1788361168 | 19.44° C | 65% | 1018.2 hPa | 0 mm | - | 112 W/m² | - |
| 1788360863 | 18.33° C | 69% | 1018.4 hPa | 0 mm | - | 104 W/m² | - |
| 1788360558 | 17.78° C | 73% | 1018.3 hPa | 0 mm | - | 81 W/m² | - |
| 1788360254 | 17.22° C | 74% | 1018.3 hPa | 0 mm | - | 48 W/m² | - |
| 1788359954 | 16.67° C | 74% | 1018.3 hPa | 0 mm | - | 30 W/m² | - |
| 1788359649 | 16.67° C | 75% | 1018.2 hPa | 0 mm | - | 24 W/m² | - |
| 1788359344 | 16.11° C | 75% | 1018.1 hPa | 0 mm | - | 23 W/m² | - |
* Rain latest hour (hover to see other rain measurements)
** Current wind speed in m/s (hover to see current wind gust speed)